MST,Max TemperatureF,Mean TemperatureF,Min TemperatureF,Max Dew PointF,MeanDew PointF,Min DewpointF,Max Humidity, Mean Humidity, Min Humidity, Max Sea Level PressureIn, Mean Sea Level PressureIn, Min Sea Level PressureIn, Max VisibilityMiles, Mean VisibilityMiles, Min VisibilityMiles, Max Wind SpeedMPH, Mean Wind SpeedMPH, Max Gust SpeedMPH,PrecipitationIn, CloudCover, Events, WindDirDegrees
2012-11-1,78,63,47,17,14,10,23,16,9,29.92,29.86,29.81,10,10,10,21,9,26,0.00,0,,181
2012-11-2,77,59,40,22,20,19,41,27,12,29.93,29.87,29.83,10,10,10,12,3,15,0.00,0,,181
2012-11-3,77,58,39,21,18,15,41,25,9,30.04,29.99,29.91,10,10,10,13,4,15,0.00,0,,30
2012-11-4,79,60,40,21,19,16,40,26,11,30.14,30.09,30.03,10,10,10,13,5,16,0.00,0,,65
2012-11-5,81,63,44,27,24,20,36,24,12,30.15,30.08,30.01,10,10,10,14,8,17,0.00,0,,64
2012-11-6,83,64,45,29,26,20,42,26,10,30.09,30.02,29.96,10,10,10,10,4,16,0.00,0,,64
2012-11-7,81,62,43,28,25,20,49,31,13,30.11,29.92,29.81,10,10,10,20,7,23,0.00,0,,191
2012-11-8,75,61,47,45,29,17,52,33,14,29.81,29.74,29.66,10,10,10,20,12,28,0.00,3,,182
2012-11-9,63,53,42,43,34,19,61,49,36,29.80,29.64,29.56,10,10,10,36,19,43,T,5,Rain,206
2012-11-10,49,40,31,18,16,13,47,36,24,30.01,29.85,29.69,10,10,10,24,10,32,0.00,1,,217
2012-11-11,50,36,21,17,10,3,59,38,17,30.34,30.22,30.02,10,10,10,15,5,17,0.00,0,,53
2012-11-12,58,41,23,10,7,5,46,29,12,30.35,30.25,30.16,10,10,10,14,8,23,0.00,0,,59
2012-11-13,65,47,28,7,5,2,36,22,8,30.21,30.15,30.07,10,10,10,14,7,23,0.00,0,,70
2012-11-14,67,47,27,8,6,3,37,23,9,30.15,30.09,30.02,10,10,10,8,3,9,0.00,0,,74
2012-11-15,67,50,33,12,10,6,32,21,10,30.12,30.05,30.00,10,10,10,9,2,16,0.00,0,,53
2012-11-16,71,59,47,42,27,12,64,40,15,30.01,29.97,29.94,10,10,10,23,7,28,T,6,Rain,195
2012-11-17,67,57,47,42,39,36,71,53,34,30.11,29.96,29.90,10,10,10,28,10,32,0.00,3,,186
2012-11-18,67,54,40,41,36,28,79,58,37,30.07,30.00,29.94,10,10,10,23,10,31,0.00,0,,169
2012-11-19,67,53,38,38,33,29,71,51,31,30.18,30.13,30.06,10,10,10,10,7,14,0.00,0,,175
2012-11-20,71,53,35,32,30,28,70,46,22,30.16,30.07,29.99,10,10,10,13,4,16,0.00,0,,203
2012-11-21,71,53,34,30,26,19,59,40,20,30.04,29.97,29.91,10,10,10,17,7,21,0.00,0,,195
2012-11-22,70,53,35,27,25,20,59,40,20,30.15,30.06,29.97,10,10,10,20,6,22,0.00,0,,53
2012-11-23,72,56,40,28,24,20,53,34,15,30.26,30.17,30.11,10,10,10,14,7,30,0.00,0,,62
2012-11-24,75,56,36,22,20,18,48,31,13,30.26,30.05,29.94,10,10,10,5,2,5,0.00,0,,47
2012-11-25,74,56,38,26,23,20,50,33,15,29.94,29.87,29.81,10,10,10,17,4,26,0.00,0,,209
2012-11-26,71,54,37,23,21,18,48,32,15,30.09,29.99,29.87,10,10,10,12,3,12,0.00,0,,53
2012-11-27,71,54,36,22,20,17,44,29,14,30.17,30.10,30.06,10,10,10,14,3,17,0.00,0,,193
2012-11-28,71,57,42,28,24,20,45,30,15,30.17,30.04,29.98,10,10,10,13,9,17,0.00,0,,190
2012-11-29,68,55,41,39,33,26,59,45,30,30.16,30.04,29.99,10,10,10,20,8,23,0.00,0,,177
2012-11-30,67,54,41,44,41,36,76,59,42,30.06,30.00,29.95,10,10,10,13,10,14,0.00,0,,164